Weather in Kudat

Malaysia     6°52′46″N   116°50′56″E
temp.,
°C
wind,
m/s
gust,
m/s
humid.,
%
clouds,
%
prec.,
mm/h
press.,
hPa
HPBL,
m
22 january, fri
fri2223:00+27sw71179100 0.0 1010635
02:00+27sw71080100 0.0 1008622
05:00+26ssw588198 0.0 1008667
08:00+26se338598 0.0 1010345
11:00+27ese238062 0.1 1010367
14:00+28w127531 0.3 1008446
17:00+28wsw34790 0.0 1007669
20:00+27ssw348515 0.9 1009361
23 january, sat
sat2323:00+26ssw45861 0.3 1010326
02:00+26ssw458619 0.4 1008278
05:00+26ssw458548 0.0 1008317
08:00+26ssw348251 0.3 1010262
11:00+27wsw447985 0.1 1011451
14:00+27w558160 0.3 1008541
17:00+27w468262 1.6 1008465
20:00+27wsw458353 2.8 1010317
24 january, sun
sun2423:00+27wsw678221 1.0 1011481
02:00+26wsw788532 1.7 1010545
05:00+26wsw6786100 1.3 1009406
08:00+26sw4683100 1.3 1011373
11:00+27wsw2374100 0.0 1011451
14:00+27wnw457579 0.0 1009477
17:00+27wnw457453 0.0 1008572
20:00+27nw347956 0.0 1010452
25 january, mon
mon2523:00+27w238048 0.1 1011398
02:00+26wsw337855 0.7 1010354
05:00+26sw117798 0.0 1009207
08:00+26se117799 0.0 1010180
11:00+27ne237594 0.0 1011500
14:00+27ne457682 0.5 1008574
17:00+28ene567889 0.2 1007688
20:00+27ene568295 0.2 1009562
26 january, tue
tue2623:00+27ene5784100 0.3 1010650
02:00+26e468399 0.8 1008588
05:00+26e4685100 0.1 1008562
08:00+26e5785100 0.3 1009581
11:00+26e5684100 4.5 1010527
14:00+27ene6882100 7.5 1007845
17:00+27ene7979100 0.4 1006964
20:00+27ene81078100 0.4 1008990